{"data":{"norad_id":64290,"epoch":"2026-05-25T03:42:38.615040Z","epoch_age_seconds":55501,"freshness":"FRESH","line1":"1 64290U 25122A   26145.15461360 -.00000019  00000+0  00000+0 0  9996","line2":"2 64290   0.0241  26.3192 0001951 344.9177 171.0079  1.00271793  3451","mean_motion":1.00271793,"eccentricity":0.0001951,"inclination_deg":0.0241,"raan_deg":26.3192,"arg_perigee_deg":344.9177,"mean_anomaly_deg":171.0079,"bstar":0,"rev_number":345,"period_min":1436.096789453,"perigee_km":35778.366379732,"apogee_km":35794.819057268,"semimajor_km":42164.7297185,"source":"CELESTRAK","updated_at":"2026-05-25T13:38:14.154096Z"}}